Miscellaneous Local Product
Issued by NWS Hastings, NE

Home | Current Version | Previous Version | Graphics & Text | Print | Product List | Glossary On
Versions: 1 2 3 4 5 6 7 8 9 10 11 12 13 14 15 16 17 18 19 20 21 22 23 24 25 26 27 28 29 30 31 32 33 34 35 36 37 38 39 40 41 42 43 44 45 46 47 48 49 50
000
AXUS43 KGID 042102
MISGRI

GID CWA HOURLY WEATHER ROUNDUP
NATIONAL WEATHER SERVICE HASTINGS NE
400 PM CDT FRI SEP 04 2015

NOTE: "FAIR" INDICATES FEW OR NO CLOUDS BELOW 12,000 FEET WITH NO
SIGNIFICANT WEATHER AND/OR OBSTRUCTIONS TO VISIBILITY.

...SOUTH CENTRAL NEBRASKA...

CITY           SKY/WX    TMP DP  RH WIND       PRES   REMARKS
GRAND ISLAND   FAIR      94  65  38 S16G30    29.82F HX  96
HASTINGS       FAIR      95  63  34 S20G30    29.82F HX  96
KEARNEY        FAIR      93  64  38 S13       29.82S HX  95
ORD            FAIR      89  63  41 S15G26    29.81F HX  90
YORK           FAIR      90  68  48 S14G23    29.84F HX  93
AURORA         FAIR      91  65  42 S21G29    29.82F HX  93
LEXINGTON      FAIR      92  60  33 S9        29.83F HX  92
HOLDREGE       FAIR      94  56  28 S13G25    29.83S HX  92
HEBRON         FAIR      92  62  36 S20G28    29.85F HX  92

...NEBRASKA PANHANDLE...

CITY           SKY/WX    TMP DP  RH WIND       PRES   REMARKS
CHADRON        FAIR      92  45  19 VRB3      29.81F
ALLIANCE       FAIR      93  47  20 S8        29.87S
SCOTTSBLUFF    FAIR      89  39  17 SE9       29.88S
SIDNEY         FAIR      93  41  16 SW6       29.91F

...WESTERN AND NORTH CENTRAL NEBRASKA...

CITY           SKY/WX    TMP DP  RH WIND       PRES   REMARKS
VALENTINE      FAIR      94  52  24 VRB6      29.79F HX  91
AINSWORTH      FAIR      91  61  36 SE6       29.81F HX  91
ONEILL         FAIR      90  65  43 S17G23    29.81S HX  91
BROKEN BOW     FAIR      90  63  40 S15G25    29.83F HX  91
IMPERIAL       FAIR      93  49  22 VRB3      29.86F HX  90
NORTH PLATTE   FAIR      91  57  31 VRB3      29.83F
MCCOOK         FAIR      94  57  28 VRB5      29.83F HX  92

...EASTERN NEBRASKA...

CITY           SKY/WX    TMP DP  RH WIND       PRES   REMARKS
NORFOLK        FAIR      90  69  50 S15G29    29.82F HX  94
SO SIOUX CITY  FAIR      87  71  58 S15G22    29.84F HX  93
TEKAMAH        FAIR      88  74  63 SE13      29.85F HX  96
COLUMBUS       FAIR      91  68  46 S15       29.82F HX  95
ALBION         FAIR      89  67  48 S15G24    29.82F HX  91
OMAHA EPPLEY   FAIR      90  72  55 S17       29.87F HX  97
OFFUTT AFB     FAIR      88  72  58 SE14      29.86F HX  94
MILLARD        FAIR      89  71  56 SE14G24   29.86F HX  95
LINCOLN        FAIR      91  68  46 S20       29.84F HX  95
NEBRASKA CITY  FAIR      91  58  32 S17       29.88F HX  90
BEATRICE       FAIR      91  66  42 S15G26    29.86F HX  94
FALLS CITY     FAIR      93  65  39 S18G24    29.90F HX  95

...NORTHERN KANSAS...

CITY           SKY/WX    TMP DP  RH WIND       PRES   REMARKS
GOODLAND       FAIR      94  43  17 SW12G17   29.89F HX  90
HILL CITY      FAIR      99  57  24 S18G25    29.82F HX  98
NORTON         CLEAR     93  52  24 S7        29.81F HX  90
PHILLIPSBURG   SUNNY    102  55  21 S16G24    29.81S HX 101
SMITH CENTER   SUNNY     95  61  31 S18       29.82F HX  95
HAYS           FAIR     100  57  23 S23G30    29.83S HX  99
RUSSELL        FAIR      99  61  28 S25G32    29.83F HX  99
CONCORDIA      FAIR      94  65  38 S22G31    29.85F HX  96
SALINA         FAIR      95  65  37 S28       29.86F HX  97
TOPEKA         FAIR      92  65  40 S16       29.92F HX  94



USA.gov is the U.S. government's official web portal to all federal, state and local government web resources and services.